Location: Hiram
(41.3130°N, 81.1440°W)
Time: 14:52:54
(UTC-05:00)

Amateur Radio Satellites - All Passes

Search period start: 02 December 2016 14:22
Search period end: 03 December 2016 14:22
Location: Hiram, 41.3130°N, 81.1440°W

Satellite Date Start Highest point End Downlink Frequencies (MHz)
Time Altitude Azimuth
DX 1 02 Dec 14:32:42 14:34:09 11° 299° (WNW) 14:35:35 434.975-435.025
SWISSCUBE 02 Dec 14:37:32 14:42:03 42° 99° (E) 14:46:31 437.505
Cosmos 2499 02 Dec 14:41:23 14:46:09 16° 285° (WNW) 14:50:48 435.465 / 435.565
BEESAT 02 Dec 14:42:02 14:46:33 41° 99° (E) 14:51:02 436.000
UKube-1 02 Dec 14:49:06 14:49:33 10° 300° (WNW) 14:50:00 .
MOZHAYETS 4 02 Dec 14:50:07 14:51:38 11° 89° (E) 14:53:09
Gurwin Techsat 1B 02 Dec 14:52:21 14:56:01 19° 268° (W) 14:59:42 435.225
AO-7 02 Dec 14:58:20 15:06:37 83° 70° (ENE) 15:14:59 29.400- 29.500
RS-15 02 Dec 14:59:55 15:10:33 31° 27° (NNE) 15:21:00 29.354- 29.394
BEESAT 3 02 Dec 15:01:38 15:05:36 66° 55° (NE) 15:09:33 437.485
ITUPSAT 1 02 Dec 15:06:42 15:11:28 73° 103° (ESE) 15:16:12 437.325
TISAT 1 02 Dec 15:09:36 15:12:31 18° 295° (WNW) 15:15:24 437.305
BEESAT 2 02 Dec 15:21:46 15:25:42 49° 54° (NE) 15:29:36 435.950
AUBIESAT-1 02 Dec 15:22:04 15:26:43 78° 290° (WNW) 15:31:12 437.475
BRITE-PL 02 Dec 15:30:27 15:31:57 12° 60° (ENE) 15:33:28 437.365/2234.400
M-CUBED/EXP-1 PRIME 02 Dec 15:30:46 15:35:20 53° 293° (WNW) 15:39:49 437.505
ITAMSAT 1 02 Dec 15:48:21 15:52:25 23° 266° (W) 15:56:29 435.822/435.867
KKS-1 02 Dec 15:48:57 15:52:21 21° 94° (E) 15:55:43 437.445
HORYU 2 02 Dec 16:01:46 16:05:19 23° 66° (ENE) 16:08:51 437.375
STARS 02 Dec 16:07:10 16:09:41 15° 92° (E) 16:12:11 437.465
SWISSCUBE 02 Dec 16:15:59 16:19:33 21° 295° (WNW) 16:23:05 437.505
CUBESAT XI-V 02 Dec 16:17:39 16:20:15 15° 91° (E) 16:22:50 437.345
BEESAT 02 Dec 16:20:28 16:24:03 22° 295° (WNW) 16:27:36 436.000
MOZHAYETS 4 02 Dec 16:24:43 16:29:15 68° 285° (WNW) 16:33:46
O/OREOS (USA 219) 02 Dec 16:26:46 16:30:48 31° 104° (ESE) 16:34:49 437.305
NOAA 18 02 Dec 16:29:57 16:31:42 11° 55° (NE) 16:33:27 137.9125
BEESAT 3 02 Dec 16:41:43 16:42:41 11° 252° (WSW) 16:43:38 437.485
ITUPSAT 1 02 Dec 16:46:30 16:48:40 13° 300° (WNW) 16:50:51 437.325
CUTE-I 02 Dec 16:52:15 16:56:36 26° 65° (ENE) 17:00:57 437.470
AO-7 02 Dec 16:54:33 17:00:16 20° 268° (W) 17:06:03 29.400- 29.500
AUBIESAT-1 02 Dec 16:59:50 17:00:17 10° 307° (NW) 17:00:43 437.475
ISS 02 Dec 16:59:56 17:02:06 17° 131° (SE) 17:04:17 145.825
BEESAT 2 02 Dec 17:00:48 17:03:05 15° 250° (WSW) 17:05:22 435.950
GOMX 1 02 Dec 17:02:05 17:06:18 44° 71° (ENE) 17:10:51 467.674
BRITE-PL 02 Dec 17:05:36 17:09:47 67° 259° (W) 17:14:13 437.365/2234.400
RS-15 02 Dec 17:12:58 17:25:26 78° 55° (NE) 17:37:28 29.354- 29.394
AIST 2 02 Dec 17:13:13 17:16:38 23° 46° (NE) 17:20:02 435.215
Cubesat XI-IV 02 Dec 17:16:04 17:21:03 40° 69° (ENE) 17:26:03 437.490
LilacSat-2 02 Dec 17:24:35 17:28:15 42° 73° (ENE) 17:31:54 437.200
KKS-1 02 Dec 17:24:53 17:29:00 37° 290° (WNW) 17:33:07 437.445
NOAA 15 02 Dec 17:27:28 17:32:35 57° 72° (ENE) 17:37:43 137.62
DOVE 4 02 Dec 17:32:59 17:37:21 40° 70° (ENE) 17:42:00 437.250
HORYU 2 02 Dec 17:37:35 17:41:40 34° 262° (W) 17:45:46 437.375
STARS 02 Dec 17:42:01 17:46:18 50° 288° (WNW) 17:50:34 437.465
CINEMA 3 02 Dec 17:45:31 17:48:25 16° 62° (ENE) 17:51:21 145.822/145.860
HO-68 02 Dec 17:46:53 17:52:05 22° 57° (ENE) 17:57:19 435.675
CUBESAT XI-V 02 Dec 17:53:24 17:57:57 56° 287° (WNW) 18:02:30 437.345
NOAA 18 02 Dec 18:05:53 18:11:24 77° 74° (ENE) 18:16:58 137.9125
O/OREOS (USA 219) 02 Dec 18:06:20 18:10:11 26° 301° (WNW) 18:14:03 437.305
Cosmos 2491 02 Dec 18:08:19 18:16:40 47° 75° (ENE) 18:24:56 435.465 / 435.565
SEEDS 02 Dec 18:18:56 18:20:12 11° 63° (ENE) 18:21:29 437.485
CUTE-I 02 Dec 18:31:18 18:36:23 43° 261° (W) 18:41:29 437.470
CUBEBUG 2 02 Dec 18:31:53 18:33:36 12° 61° (ENE) 18:35:17 437.445
ISS 02 Dec 18:35:03 18:38:19 57° 328° (NNW) 18:41:34 145.825
COMPASS 1 02 Dec 18:36:50 18:38:20 12° 63° (ENE) 18:39:50 437.405
YUBILEINY 02 Dec 18:38:25 18:45:32 30° 83° (E) 18:52:41 435.215
GOMX 1 02 Dec 18:41:44 18:44:43 17° 270° (W) 18:47:50 467.674
AIST 2 02 Dec 18:51:17 18:55:14 39° 244° (WSW) 18:59:09 435.215
Cubesat XI-IV 02 Dec 18:56:45 19:01:13 26° 265° (W) 19:05:42 437.490
CUTE 1.7 + AOD 2 02 Dec 19:00:22 19:04:24 47° 73° (ENE) 19:08:27 437.475
LilacSat-2 02 Dec 19:00:47 19:02:43 13° 268° (W) 19:04:41 437.200
NOAA 15 02 Dec 19:09:18 19:12:43 17° 268° (W) 19:16:09 137.62
DOVE 4 02 Dec 19:11:38 19:15:13 22° 268° (W) 19:18:59 437.250
CANX-2 02 Dec 19:17:19 19:21:33 87° 76° (ENE) 19:25:47 2200.000
CINEMA 3 02 Dec 19:20:07 19:24:56 65° 259° (W) 19:29:56 145.822/145.860
UWE-3 02 Dec 19:20:34 19:24:15 23° 67° (ENE) 19:27:54 435.000/436.395/437.385
Oscar 11 02 Dec 19:22:41 19:24:30 12° 63° (ENE) 19:26:18 145.826/435.025
RS-15 02 Dec 19:26:44 19:36:42 31° 258° (WSW) 19:46:26 29.354- 29.394
HO-68 02 Dec 19:31:55 19:39:04 76° 256° (WSW) 19:46:17 435.675
AAUSAT CUBESAT 2 02 Dec 19:43:13 19:47:09 49° 74° (ENE) 19:51:09 437.432
NOAA 18 02 Dec 19:49:50 19:52:39 14° 270° (W) 19:55:28 137.9125
SEEDS 02 Dec 19:51:11 19:55:20 66° 260° (W) 19:59:30 437.485
STRAND 1 02 Dec 19:54:31 19:59:40 86° 105° (ESE) 20:04:45 437.568
SO-50 02 Dec 19:54:57 19:56:26 11° 107° (ESE) 19:57:53 436.795
AIST 1 02 Dec 20:03:37 20:07:32 36° 92° (E) 20:11:32
CUBEBUG 2 02 Dec 20:04:44 20:09:30 83° 256° (WSW) 20:14:17 437.445
Cosmos 2491 02 Dec 20:05:30 20:13:17 38° 274° (W) 20:21:02 435.465 / 435.565
COMPASS 1 02 Dec 20:09:16 20:13:21 62° 259° (W) 20:17:27 437.405
ZACube-1 02 Dec 20:09:53 20:14:14 45° 72° (ENE) 20:18:34 437.345
CUSAT 1 02 Dec 20:11:28 20:13:41 16° 76° (ENE) 20:16:12 437.405
ISS 02 Dec 20:13:05 20:15:21 17° 347° (NNW) 20:17:37 145.825
Cosmos 2504 02 Dec 20:17:15 20:25:16 60° 91° (E) 20:33:48 435.465 / 435.565
FUNcube-1 02 Dec 20:19:49 20:24:15 53° 73° (ENE) 20:28:39 145.935
YUBILEINY 02 Dec 20:33:11 20:41:43 60° 282° (WNW) 20:50:22 435.215
CUTE 1.7 + AOD 2 02 Dec 20:38:10 20:40:29 14° 269° (W) 20:42:49 437.475
HUMSAT D 02 Dec 20:38:35 20:41:10 16° 65° (ENE) 20:43:42 437.325/437.525
PCSat 02 Dec 20:50:19 20:55:08 31° 50° (NE) 20:59:56 145.827
PRISM 02 Dec 20:54:43 20:58:08 24° 96° (E) 21:01:31 437.425
Oscar 11 02 Dec 20:55:48 21:00:05 64° 259° (W) 21:04:23 145.826/435.025
UWE-3 02 Dec 20:56:09 21:00:28 36° 263° (W) 21:04:47 435.000/436.395/437.385
DELFI C3 02 Dec 21:15:56 21:19:51 77° 75° (ENE) 21:23:47 145.870
AAUSAT CUBESAT 2 02 Dec 21:20:59 21:22:55 13° 269° (W) 21:24:52 437.432
HO-68 02 Dec 21:25:17 21:27:52 12° 273° (W) 21:30:29 435.675
SO-50 02 Dec 21:31:27 21:36:14 84° 302° (WNW) 21:40:59 436.795
STRAND 1 02 Dec 21:35:59 21:38:06 13° 301° (WNW) 21:40:12 437.568
AIST 1 02 Dec 21:42:17 21:45:17 18° 289° (WNW) 21:48:18
ZACube-1 02 Dec 21:47:39 21:50:42 18° 268° (W) 21:53:46 437.345
ISS 02 Dec 21:50:54 21:52:52 15° 7° (N) 21:54:49 145.825
UNISAT 6 02 Dec 21:52:18 21:55:53 23° 94° (E) 21:59:22 437.425
CUSAT 1 02 Dec 21:52:30 21:55:28 27° 263° (W) 21:59:06 437.405
FUNcube-1 02 Dec 21:58:12 22:00:46 15° 269° (W) 22:03:20 145.935
DANDE 02 Dec 22:00:39 22:03:20 75° 81° (E) 22:06:25 436.750
Cosmos 2504 02 Dec 22:12:06 22:19:12 30° 292° (WNW) 22:26:42 435.465 / 435.565
HUMSAT D 02 Dec 22:12:20 22:16:24 45° 261° (W) 22:20:27 437.325/437.525
TIGRISAT 02 Dec 22:23:02 22:27:19 47° 99° (E) 22:31:29 435.000
ANTELSAT 02 Dec 22:23:26 22:27:46 50° 99° (E) 22:31:59 437.575/2403.000
ESTCUBE 1 02 Dec 22:23:58 22:27:58 33° 69° (ENE) 22:31:58 437.505/2401.250
PRISM 02 Dec 22:29:51 22:33:22 27° 291° (WNW) 22:36:55 437.425
PCSat 02 Dec 22:33:34 22:38:37 40° 249° (WSW) 22:43:37 145.827
YUBILEINY 02 Dec 22:38:17 22:40:43 11° 306° (NW) 22:43:09 435.215
AISAT 02 Dec 22:47:02 22:50:43 26° 67° (ENE) 22:54:24 437.250
SPROUT 02 Dec 22:50:31 22:53:19 17° 65° (ENE) 22:56:09 437.525
JAS-2 02 Dec 22:52:59 22:56:42 20° 93° (E) 23:00:28 435.910
SO-50 02 Dec 23:14:48 23:17:25 14° 322° (NW) 23:20:00 436.795
NANOSAT C BR1 02 Dec 23:19:16 23:22:28 21° 94° (E) 23:25:38 145.865
QB50P2 02 Dec 23:21:06 23:24:38 25° 95° (E) 23:28:07 145.880/145.840
POLYITAN 1 02 Dec 23:21:48 23:25:16 24° 95° (E) 23:28:40 437.675
GONETS M04 02 Dec 23:22:12 23:23:16 10° 72° (ENE) 23:24:20
CUBEBUG 1 02 Dec 23:22:27 23:26:47 86° 78° (ENE) 23:31:11 437.445
VELOX 1 02 Dec 23:23:26 23:27:45 60° 74° (ENE) 23:32:08 145.980
ISS 02 Dec 23:27:01 23:30:06 34° 27° (NNE) 23:33:10 145.825
UNISAT 6 02 Dec 23:28:41 23:32:37 31° 291° (WNW) 23:36:26 437.425
Cosmos 2499 02 Dec 23:32:46 23:37:17 16° 75° (ENE) 23:41:53 435.465 / 435.565
QB50P1 02 Dec 23:35:48 23:39:41 34° 97° (E) 23:43:31 145.935-145.965
DUCHIFAT 1 02 Dec 23:42:58 23:46:50 34° 98° (E) 23:50:40 145.980
DX 1 02 Dec 23:49:22 23:53:39 63° 74° (ENE) 23:57:58 434.975-435.025
50 SAT 02 Dec 23:50:09 23:53:39 75° 258° (WSW) 23:57:10 437.505
POPSAT HIP 1 02 Dec 23:56:43 00:00:55 58° 101° (E) 00:05:04 437.405
TIGRISAT 03 Dec 00:00:47 00:03:36 17° 296° (WNW) 00:06:22 435.000
ESTCUBE 1 03 Dec 00:01:15 00:04:48 23° 266° (W) 00:08:22 437.505/2401.250
ANTELSAT 03 Dec 00:01:23 00:04:02 16° 297° (WNW) 00:06:37 437.575/2403.000
UKube-1 03 Dec 00:03:57 00:08:13 68° 75° (ENE) 00:12:32 .
AISAT 03 Dec 00:23:14 00:27:03 29° 264° (W) 00:30:56 437.250
TISAT 1 03 Dec 00:24:44 00:28:25 30° 69° (ENE) 00:32:08 437.305
SPROUT 03 Dec 00:24:48 00:28:54 43° 261° (W) 00:33:02 437.525
AUBIESAT-1 03 Dec 00:35:36 00:37:40 14° 56° (NE) 00:39:48 437.475
JAS-2 03 Dec 00:37:09 00:42:06 47° 289° (WNW) 00:47:09 435.910
ITUPSAT 1 03 Dec 00:40:26 00:40:56 10° 58° (ENE) 00:41:26 437.325
M-CUBED/EXP-1 PRIME 03 Dec 00:43:34 00:46:30 19° 59° (ENE) 00:49:35 437.505
NANOSAT C BR1 03 Dec 00:54:26 00:58:14 33° 290° (WNW) 01:02:01 145.865
BUGSAT 1 03 Dec 00:55:00 00:59:14 88° 104° (ESE) 01:03:24 437.445
QB50P2 03 Dec 00:56:46 01:00:22 28° 291° (WNW) 01:03:58 145.880/145.840
POLYITAN 1 03 Dec 00:57:22 01:01:02 29° 291° (WNW) 01:04:40 437.675
VELOX 1 03 Dec 01:02:46 01:04:36 12° 270° (W) 01:06:26 145.980
ISS 03 Dec 01:03:37 01:06:34 30° 224° (SW) 01:09:30 145.825
GONETS M04 03 Dec 01:09:38 01:18:12 64° 92° (E) 01:26:44
QB50P1 03 Dec 01:12:02 01:15:13 21° 294° (WNW) 01:18:23 145.935-145.965
DUCHIFAT 1 03 Dec 01:19:09 01:22:17 20° 294° (WNW) 01:25:22 145.980
Cosmos 2499 03 Dec 01:20:25 01:28:50 80° 95° (E) 01:37:44 435.465 / 435.565
Gurwin Techsat 1B 03 Dec 01:27:28 01:31:30 21° 93° (E) 01:35:30 435.225
DX 1 03 Dec 01:28:47 01:30:15 11° 270° (W) 01:31:43 434.975-435.025
POPSAT HIP 1 03 Dec 01:34:10 01:36:11 13° 297° (WNW) 01:38:12 437.405
PHONESAT 2.4 03 Dec 01:40:01 01:41:31 14° 152° (SSE) 01:43:01 2401.200-2431.200
SWISSCUBE 03 Dec 01:43:46 01:48:22 49° 71° (ENE) 01:52:58 437.505
UKube-1 03 Dec 01:43:57 01:44:42 10° 270° (W) 01:45:28 .
BEESAT 03 Dec 01:48:13 01:52:48 48° 71° (ENE) 01:57:24 436.000
MOZHAYETS 4 03 Dec 01:52:17 01:54:12 12° 62° (ENE) 01:56:07
Oscar 19 03 Dec 01:59:56 02:05:09 84° 104° (ESE) 02:10:22 437.125/150
TISAT 1 03 Dec 02:00:39 02:04:02 23° 265° (W) 02:07:28 437.305
AUBIESAT-1 03 Dec 02:07:30 02:11:28 63° 254° (WSW) 02:15:45 437.475
ITUPSAT 1 03 Dec 02:13:11 02:17:58 85° 78° (ENE) 02:22:47 437.325
M-CUBED/EXP-1 PRIME 03 Dec 02:16:56 02:20:38 39° 258° (WSW) 02:24:40 437.505
ITAMSAT 1 03 Dec 02:21:59 02:24:55 15° 91° (E) 02:27:50 435.822/435.867
O/OREOS (USA 219) 03 Dec 02:36:12 02:40:39 61° 66° (ENE) 02:45:04 437.305
KKS-1 03 Dec 02:47:14 02:50:30 20° 65° (ENE) 02:53:46 437.445
AO-7 03 Dec 03:00:42 03:07:33 27° 95° (E) 03:14:21 29.400- 29.500
STARS 03 Dec 03:04:14 03:06:38 15° 63° (ENE) 03:09:03 437.465
Gurwin Techsat 1B 03 Dec 03:06:34 03:11:40 48° 290° (WNW) 03:16:44 435.225
GONETS M04 03 Dec 03:08:21 03:15:36 29° 292° (WNW) 03:22:52
PHONESAT 2.4 03 Dec 03:13:50 03:16:26 50° 167° (SSE) 03:19:01 2401.200-2431.200
AO-85 03 Dec 03:14:34 03:19:33 85° 119° (ESE) 03:24:10 145.980
Cosmos 2499 03 Dec 03:16:31 03:23:01 23° 296° (WNW) 03:29:45 435.465 / 435.565
CUBESAT XI-V 03 Dec 03:21:25 03:24:02 15° 63° (ENE) 03:26:39 437.345
SWISSCUBE 03 Dec 03:23:13 03:26:24 18° 267° (W) 03:29:36 437.505
MOZHAYETS 4 03 Dec 03:26:10 03:30:45 72° 257° (WSW) 03:35:22
BEESAT 03 Dec 03:27:38 03:30:50 18° 267° (W) 03:34:03 436.000
Oscar 19 03 Dec 03:41:23 03:43:45 13° 301° (WNW) 03:46:07 437.125/150
ITAMSAT 1 03 Dec 03:59:41 04:04:50 65° 287° (WNW) 04:09:56 435.822/435.867
O/OREOS (USA 219) 03 Dec 04:17:37 04:19:28 12° 262° (W) 04:21:19 437.305
KKS-1 03 Dec 04:22:35 04:26:46 39° 261° (W) 04:30:59 437.445
SO-50 03 Dec 04:23:58 04:26:21 14° 37° (NE) 04:28:42 436.795
STARS 03 Dec 04:38:09 04:42:30 57° 259° (W) 04:46:53 437.465
YUBILEINY 03 Dec 04:48:52 04:53:13 14° 58° (ENE) 04:57:33 435.215
PHONESAT 2.4 03 Dec 04:48:59 04:51:37 74° 186° (S) 04:54:17 2401.200-2431.200
AO-7 03 Dec 04:52:34 05:00:51 67° 293° (WNW) 05:09:07 29.400- 29.500
CUBESAT XI-V 03 Dec 04:56:25 05:00:55 57° 260° (W) 05:05:27 437.345
AO-85 03 Dec 04:57:39 05:00:29 16° 319° (NW) 05:03:14 145.980
GOMX 1 03 Dec 05:04:12 05:07:41 17° 90° (E) 05:11:10 467.674
BRITE-PL 03 Dec 05:09:02 05:14:05 41° 98° (E) 05:19:22 437.365/2234.400
HORYU 2 03 Dec 05:28:00 05:32:14 42° 99° (E) 05:36:25 437.375
DOVE 4 03 Dec 05:33:22 05:35:48 13° 88° (E) 05:38:12 437.250
STRAND 1 03 Dec 05:33:48 05:36:51 16° 61° (ENE) 05:39:55 437.568
Cubesat XI-IV 03 Dec 05:34:27 05:37:35 16° 91° (E) 05:40:40 437.490
NOAA 15 03 Dec 05:43:15 05:47:13 21° 93° (E) 05:51:10 137.62
SO-50 03 Dec 06:02:58 06:07:31 86° 53° (NE) 06:11:59 436.795
Cosmos 2504 03 Dec 06:10:44 06:17:30 24° 64° (ENE) 06:24:01 435.465 / 435.565
PHONESAT 2.4 03 Dec 06:24:20 06:26:44 30° 200° (SSW) 06:29:08 2401.200-2431.200
NOAA 18 03 Dec 06:28:19 06:33:15 32° 97° (E) 06:38:07 137.9125
BEESAT 3 03 Dec 06:28:49 06:32:42 68° 304° (WNW) 06:36:38 437.485
LilacSat-2 03 Dec 06:31:46 06:35:33 64° 101° (ESE) 06:39:16 437.200
GOMX 1 03 Dec 06:40:44 06:46:08 65° 286° (WNW) 06:51:34 467.674
YUBILEINY 03 Dec 06:43:00 06:51:50 71° 80° (E) 07:00:37 435.215
AO-7 03 Dec 06:47:31 06:52:05 16° 313° (NW) 06:56:40 29.400- 29.500
CUTE-I 03 Dec 06:47:54 06:53:16 77° 103° (ESE) 06:58:34 437.470
BRITE-PL 03 Dec 06:47:55 06:52:20 27° 292° (WNW) 06:56:57 437.365/2234.400
BEESAT 2 03 Dec 06:50:28 06:54:24 88° 302° (WNW) 06:58:24 435.950
HO-68 03 Dec 07:00:46 07:05:58 21° 92° (E) 07:11:08 435.675
CANX-2 03 Dec 07:03:35 07:05:59 15° 91° (E) 07:08:22 2200.000
HORYU 2 03 Dec 07:05:23 07:08:27 19° 295° (WNW) 07:11:30 437.375
DOVE 4 03 Dec 07:08:43 07:14:03 78° 283° (WNW) 07:19:15 437.250
Cosmos 2491 03 Dec 07:09:11 07:17:37 54° 90° (E) 07:26:03 435.465 / 435.565
STRAND 1 03 Dec 07:10:21 07:15:28 68° 258° (WSW) 07:20:35 437.568
Cubesat XI-IV 03 Dec 07:12:48 07:18:07 66° 287° (WNW) 07:23:23 437.490
CINEMA 3 03 Dec 07:15:21 07:19:42 32° 95° (E) 07:23:52 145.822/145.860
NOAA 15 03 Dec 07:22:11 07:27:13 48° 290° (WNW) 07:32:16 137.62
RS-15 03 Dec 07:35:37 07:46:38 50° 110° (ESE) 07:58:08 29.354- 29.394
SEEDS 03 Dec 07:35:38 07:38:41 19° 93° (E) 07:41:44 437.485
PRISM 03 Dec 07:44:40 07:47:26 18° 65° (ENE) 07:50:13 437.425
AIST 1 03 Dec 07:47:25 07:51:50 74° 263° (W) 07:56:13
COMPASS 1 03 Dec 07:52:33 07:55:39 20° 94° (E) 07:58:44 437.405
CUBEBUG 2 03 Dec 07:56:43 08:00:02 20° 92° (E) 08:03:15 437.445
Cosmos 2504 03 Dec 08:03:02 08:11:54 79° 266° (W) 08:20:17 435.465 / 435.565
NOAA 18 03 Dec 08:08:54 08:13:53 35° 293° (WNW) 08:18:50 137.9125
CUTE 1.7 + AOD 2 03 Dec 08:20:34 08:24:48 85° 281° (WNW) 08:29:01 437.475
CUTE-I 03 Dec 08:29:41 08:32:39 15° 300° (WNW) 08:35:34 437.470
BEESAT 2 03 Dec 08:31:22 08:32:49 12° 321° (NW) 08:34:17 435.950
CANX-2 03 Dec 08:38:03 08:42:04 45° 287° (WNW) 08:46:05 2200.000
YUBILEINY 03 Dec 08:41:06 08:47:45 25° 279° (W) 08:54:26 435.215
Oscar 11 03 Dec 08:43:29 08:46:52 22° 94° (E) 08:50:15 145.826/435.025
UWE-3 03 Dec 08:45:40 08:49:51 44° 98° (E) 08:53:53 435.000/436.395/437.385
HO-68 03 Dec 08:47:06 08:54:18 73° 289° (WNW) 09:01:27 435.675
AIST 2 03 Dec 08:48:22 08:52:11 40° 116° (ESE) 08:56:05 435.215
DOVE 4 03 Dec 08:49:24 08:50:47 11° 302° (WNW) 08:52:10 437.250
UNISAT 6 03 Dec 08:50:55 08:54:36 23° 67° (ENE) 08:58:16 437.425
CINEMA 3 03 Dec 08:52:35 08:56:41 27° 293° (WNW) 09:00:39 145.822/145.860
AAUSAT CUBESAT 2 03 Dec 09:00:21 09:04:30 86° 280° (W) 09:08:38 437.432
Cosmos 2491 03 Dec 09:07:02 09:14:46 34° 290° (WNW) 09:22:33 435.465 / 435.565
JAS-2 03 Dec 09:08:37 09:10:20 11° 57° (ENE) 09:12:00 435.910
SEEDS 03 Dec 09:10:41 09:14:27 34° 289° (WNW) 09:18:14 437.485
CUSAT 1 03 Dec 09:15:39 09:17:31 14° 95° (E) 09:19:13 437.405
PRISM 03 Dec 09:18:42 09:22:27 37° 262° (W) 09:26:15 437.425
TIGRISAT 03 Dec 09:21:05 09:25:31 43° 71° (ENE) 09:29:56 435.000
ANTELSAT 03 Dec 09:21:36 09:26:05 46° 72° (ENE) 09:30:33 437.575/2403.000
COMPASS 1 03 Dec 09:27:32 09:31:15 32° 289° (WNW) 09:34:57 437.405
CUBEBUG 2 03 Dec 09:32:42 09:36:46 35° 290° (WNW) 09:40:42 437.445
ZACube-1 03 Dec 09:34:16 09:38:33 85° 285° (WNW) 09:42:43 437.345
FUNcube-1 03 Dec 09:43:57 09:48:12 72° 284° (WNW) 09:52:20 145.935
RS-15 03 Dec 09:47:31 09:59:04 55° 314° (NW) 10:11:09 29.354- 29.394
HUMSAT D 03 Dec 09:55:50 09:59:16 26° 95° (E) 10:02:40 437.325/437.525
Cosmos 2504 03 Dec 09:59:15 10:03:41 15° 286° (WNW) 10:08:02 435.465 / 435.565
NANOSAT C BR1 03 Dec 10:11:53 10:14:35 17° 65° (ENE) 10:17:18 145.865
QB50P2 03 Dec 10:14:01 10:17:08 20° 66° (ENE) 10:20:16 145.880/145.840
POLYITAN 1 03 Dec 10:14:43 10:17:46 19° 66° (ENE) 10:20:51 437.675
Oscar 11 03 Dec 10:19:14 10:23:02 31° 290° (WNW) 10:26:48 145.826/435.025
UWE-3 03 Dec 10:23:08 10:25:55 17° 296° (WNW) 10:28:40 435.000/436.395/437.385
UNISAT 6 03 Dec 10:26:44 10:31:05 37° 263° (W) 10:35:26 437.425
AIST 2 03 Dec 10:27:35 10:30:49 22° 314° (NW) 10:34:06 435.215
DELFI C3 03 Dec 10:27:44 10:31:40 63° 285° (WNW) 10:35:35 145.870
QB50P1 03 Dec 10:28:16 10:31:48 26° 68° (ENE) 10:35:23 145.935-145.965
DUCHIFAT 1 03 Dec 10:34:49 10:38:21 26° 68° (ENE) 10:41:55 145.980
HO-68 03 Dec 10:37:06 10:40:48 15° 308° (NW) 10:44:28 435.675
JAS-2 03 Dec 10:47:55 10:54:36 71° 73° (ENE) 11:00:29 435.910
POPSAT HIP 1 03 Dec 10:48:52 10:52:55 42° 72° (ENE) 10:56:59 437.405
CUSAT 1 03 Dec 10:56:46 10:59:17 19° 283° (WNW) 11:01:30 437.405
TIGRISAT 03 Dec 10:58:58 11:02:21 20° 267° (W) 11:05:45 435.000
ANTELSAT 03 Dec 10:59:45 11:02:59 18° 268° (W) 11:06:13 437.575/2403.000
DANDE 03 Dec 11:08:10 11:13:22 78° 279° (W) 11:17:15 436.750
CUBEBUG 1 03 Dec 11:12:06 11:14:53 16° 92° (E) 11:17:38 437.445
Cosmos 2499 03 Dec 11:12:45 11:20:11 30° 68° (ENE) 11:27:10 435.465 / 435.565
VELOX 1 03 Dec 11:15:43 11:17:08 11° 90° (E) 11:18:33 145.980
GONETS M04 03 Dec 11:20:09 11:27:41 31° 69° (ENE) 11:35:10
HUMSAT D 03 Dec 11:31:29 11:34:47 24° 291° (WNW) 11:38:05 437.325/437.525
PCSat 03 Dec 11:32:35 11:36:59 26° 108° (ESE) 11:41:23 145.827
DX 1 03 Dec 11:40:09 11:41:08 11° 90° (E) 11:42:08 434.975-435.025
Oscar 19 03 Dec 11:40:10 11:43:12 16° 61° (ENE) 11:46:14 437.125/150
BUGSAT 1 03 Dec 11:44:09 11:48:18 59° 74° (ENE) 11:52:30 437.445
NANOSAT C BR1 03 Dec 11:45:51 11:49:56 45° 261° (W) 11:54:03 145.865
AO-85 03 Dec 11:46:29 11:50:27 67° 56° (NE) 11:54:18 145.980
QB50P2 03 Dec 11:48:43 11:52:40 36° 262° (W) 11:56:40 145.880/145.840
POLYITAN 1 03 Dec 11:49:18 11:53:17 38° 262° (W) 11:57:19 437.675
ESTCUBE 1 03 Dec 11:52:21 11:56:51 73° 102° (ESE) 12:01:21 437.505/2401.250
UKube-1 03 Dec 11:53:26 11:54:37 11° 90° (E) 11:55:48 .
QB50P1 03 Dec 12:03:51 12:07:29 27° 264° (W) 12:11:09 145.935-145.965
RS-15 03 Dec 12:05:46 12:15:19 25° 345° (NNW) 12:25:02 29.354- 29.394
DUCHIFAT 1 03 Dec 12:10:21 12:13:57 26° 264° (W) 12:17:34 145.980
SPROUT 03 Dec 12:10:36 12:14:24 30° 96° (E) 12:18:09 437.525
AISAT 03 Dec 12:12:27 12:16:50 51° 100° (E) 12:21:11 437.250
POPSAT HIP 1 03 Dec 12:26:08 12:28:53 17° 268° (W) 12:31:38 437.405
JAS-2 03 Dec 12:35:40 12:39:59 18° 267° (W) 12:44:02 435.910
CUBEBUG 1 03 Dec 12:47:08 12:51:23 46° 288° (WNW) 12:55:37 437.445
Gurwin Techsat 1B 03 Dec 12:48:19 12:53:05 35° 68° (ENE) 12:57:52 435.225
50 SAT 03 Dec 12:49:20 12:52:52 64° 285° (WNW) 12:56:23 437.505
VELOX 1 03 Dec 12:49:35 12:54:01 67° 286° (WNW) 12:58:26 145.980
Cosmos 2499 03 Dec 13:05:22 13:13:51 60° 269° (W) 13:21:45 435.465 / 435.565
DX 1 03 Dec 13:13:24 13:17:46 69° 286° (WNW) 13:22:07 434.975-435.025
PCSat 03 Dec 13:14:56 13:20:06 45° 305° (NW) 13:25:19 145.827
GONETS M04 03 Dec 13:16:30 13:24:57 58° 269° (W) 13:33:24
Oscar 19 03 Dec 13:16:51 13:21:56 67° 258° (WSW) 13:27:04 437.125/150
BUGSAT 1 03 Dec 13:22:32 13:24:02 12° 270° (W) 13:25:32 437.445
UKube-1 03 Dec 13:26:45 13:31:04 65° 286° (WNW) 13:35:21 .
ESTCUBE 1 03 Dec 13:31:19 13:33:03 12° 299° (WNW) 13:34:46 437.505/2401.250
ITAMSAT 1 03 Dec 13:39:29 13:43:40 25° 65° (ENE) 13:47:51 435.822/435.867
TISAT 1 03 Dec 13:43:23 13:47:31 51° 100° (E) 13:51:37 437.305
SWISSCUBE 03 Dec 13:45:57 13:47:45 12° 90° (E) 13:49:32 437.505
SPROUT 03 Dec 13:46:43 13:50:10 24° 292° (WNW) 13:53:36 437.525
AISAT 03 Dec 13:50:06 13:52:52 16° 296° (WNW) 13:55:38 437.250
BEESAT 03 Dec 13:50:23 13:52:08 12° 90° (E) 13:53:53 436.000
M-CUBED/EXP-1 PRIME 03 Dec 13:56:34 13:59:23 16° 96° (E) 14:02:09 437.505
AO-7 03 Dec 13:59:39 14:07:07 39° 60° (ENE) 14:14:38 29.400- 29.500
ITUPSAT 1 03 Dec 14:14:23 14:18:00 21° 94° (E) 14:21:36 437.325
